Regional Weather Roundup
Issued by NWS

Home | Current Version | Previous Version | Graphics & Text | Print | Product List | Glossary On
Versions: 1 2 3 4 5 6 7 8 9 10 11 12 13 14 15 16 17 18 19 20 21 22 23 24 25 26 27 28 29 30 31 32 33 34 35 36 37 38 39 40 41 42 43 44 45 46 47 48 49 50
000
ASUS43 KOAX 252110
RWRNE

WEATHER ROUNDUP FOR NEBRASKA
NATIONAL WEATHER SERVICE OMAHA NE
400 PM CDT MON MAY 25 2015

NOTES: SATELLITE DATA IS BEING USED TO AUGMENT CLOUD COVER ABOVE
       12000 FEET.
       "FAIR" INDICATES FEW OR NO CLOUDS BELOW 12,000 FEET WITH NO
       SIGNIFICANT WEATHER AND/OR OBSTRUCTIONS TO VISIBILITY.

  * THESE STATIONS DO NOT REPORT WEATHER SUCH AS RAIN...SNOW OR FOG.

NEZ001>004-019>022-054>056-252200-
NEBRASKA PANHANDLE

CITY           SKY/WX    TMP DP  RH WIND       PRES   REMARKS
SCOTTSBLUFF    CLOUDY    57  53  86 W10       29.89R
ALLIANCE       LGT RAIN  54  52  93 N6        29.87R
CHADRON        CLOUDY    62  50  64 NE3       29.84S
KIMBALL          N/A    N/A N/A N/A MISG        N/A
SIDNEY         LGT RAIN  54  49  83 NW15      29.89S
$$

NEZ057>060-069>072-079>082-252200-
SOUTHWEST NEBRASKA

CITY           SKY/WX    TMP DP  RH WIND       PRES   REMARKS
NORTH PLATTE   MOSUNNY   68  51  54 W14G20    29.80F
IMPERIAL       LGT RAIN  58  52  80 W10       29.87R
LEXINGTON      MOSUNNY   73  55  52 W10G17    29.78F
MCCOOK         MOSUNNY   74  49  41 W13G24    29.80F
OGALLALA       CLOUDY    60  53  78 SW5       29.83F
$$

NEZ005>010-023>029-035>040-094-252200-
NORTH CENTRAL NEBRASKA

CITY           SKY/WX    TMP DP  RH WIND       PRES   REMARKS
VALENTINE      RAIN      55  54  96 NW3       29.84R FOG
AINSWORTH      RAIN      57  57  98 W12       29.81S
BROKEN BOW     PTSUNNY   69  59  70 W8        29.78F
O`NEILL        CLOUDY    71  55  57 S13       29.78R
ORD            MOSUNNY   73  55  53 SW14      29.75F
THEDFORD       CLOUDY    63  54  71 CALM      29.82R
$$

NEZ041-046>049-061>064-073>077-083>087-252200-
SOUTH CENTRAL NEBRASKA

CITY           SKY/WX    TMP DP  RH WIND       PRES   REMARKS
GRAND ISLAND   MOSUNNY   73  54  51 S15       29.79F
AURORA         PTSUNNY   73  56  53 S15       29.79S
HASTINGS       PTSUNNY   74  56  53 SW12      29.79F
HEBRON         MOSUNNY   76  58  54 S13       29.78F
HOLDREGE       MOSUNNY   73  53  48 W9G16     29.79S
KEARNEY *      MOSUNNY   73  54  49 SW13      29.78F
YORK           PTSUNNY   75  57  53 SW15      29.79F
$$

NEZ011>018-030>034-042>045-252200-
NORTHEAST NEBRASKA

CITY           SKY/WX    TMP DP  RH WIND       PRES   REMARKS
NORFOLK        MOSUNNY   77  55  46 SW17G24   29.75F
ALBION         MOSUNNY   76  53  44 SW10G20   29.76F
BLAIR          CLOUDY    78  56  46 SW16      29.79S
COLUMBUS *     PTSUNNY   75  55  50 SW12      29.81S
FREMONT        MOSUNNY   79  56  45 SW9G18    29.79S
TEKAMAH        PTSUNNY   81  55  40 S15G24    29.77F
WAYNE          MOSUNNY   77  57  49 SW17G25   29.76F
$$

NEZ050>053-065>068-078-088>093-252200-
SOUTHEAST NEBRASKA

CITY           SKY/WX    TMP DP  RH WIND       PRES   REMARKS
LINCOLN        MOSUNNY   78  62  57 S18       29.79S
OMAHA EPPLEY   PTSUNNY   80  60  50 S14       29.78S
BEATRICE       MOSUNNY   77  63  61 S14       29.78F
FALLS CITY     PTSUNNY   77  65  66 S13       29.80F
NEBRASKA CITY  PTSUNNY   78  57  48 SW21      29.80F
PLATTSMOUTH    MOSUNNY   78  58  50 S18       29.79F
$$

NEZ044-045-051>053-067-252200-
OMAHA AREA

CITY           SKY/WX    TMP DP  RH WIND       PRES   REMARKS
OMAHA EPPLEY   PTSUNNY   80  60  50 S14       29.78S
BLAIR          CLOUDY    78  56  46 SW16      29.79S
FREMONT        MOSUNNY   79  56  45 SW9G18    29.79S
MILLARD        PTSUNNY   78  62  57 S10       29.78F
OFFUTT AFB     SUNNY     79  62  56 S15G24    29.77F
PLATTSMOUTH    MOSUNNY   78  58  50 S18       29.79F
WAHOO          FAIR      79  58  49 S15G22    29.78F
$$


USA.gov is the U.S. government's official web portal to all federal, state and local government web resources and services.